Regional Weather Roundup
Issued by NWS

Home | Current Version | Previous Version | Text Only | Print | Product List | Glossary Off
Versions: 1 2 3 4 5 6 7 8 9 10 11 12 13 14 15 16 17 18 19 20 21 22 23 24 25 26 27 28 29 30 31 32 33 34 35 36 37 38 39 40 41 42 43 44 45 46 47 48 49 50

000
ASUS45 KABQ 200110
RWRNM
WEATHER ROUNDUP FOR NEW MEXICO
NATIONAL WEATHER SERVICE ALBUQUERQUE NM
700 PM MDT TUE AUG 19 2014

NOTE: "FAIR" MEANS FEW OR NO CLOUDS BELOW 12,000 FEET AGL WITH NO
       SIGNIFICANT WEATHER OR OBSTRUCTIONS TO VISION.

      THIS PRODUCT IS RELEASED AS TWO VERSIONS.  ONE VERSION NEAR
      THE TOP OF THE HOUR CONTAINING PRELIMINARY DATA FROM ALBUQUERQUE
      AND OTHER STATIONS.  A FINAL VERSION WITH ADDITIONAL DATA IS
      ISSUED ABOUT 10 MINUTES AFTER THE HOUR.

NMZ501-503-504-510>518-200200-
NORTHWEST PLATEAU/NORTHCENTRAL MOUNTAINS

CITY           SKY/WX    TMP DP  RH WIND       PRES   REMARKS
FARMINGTON     PTSUNNY   72  51  47 W13       29.99R
LOS ALAMOS     MOCLDY    76  34  21 SW9       30.08S
SANTA FE       MOCLDY    77  42  28 SW13      30.01R
TAOS           CLOUDY    72  43  35 E18       30.08F
ANGEL FIRE     CLOUDY    59  48  67 NE10      30.21S

$$
NMZ402-403-502-505>509-200200-
WESTCENTRAL MOUNTAINS/SOUTHWEST MOUNTAINS

CITY           SKY/WX    TMP DP  RH WIND       PRES   REMARKS
GALLUP         LGT RAIN  62  58  86 SW10      30.11R
SILVER CITY    CLOUDY    68  59  73 MISG      30.08S

$$
NMZ407-409-411-412-200200-
SOUTHERN DESERTS

CITY           SKY/WX    TMP DP  RH WIND       PRES   REMARKS
LORDSBURG      LGT RAIN  68  61  77 NW10      30.03S
DEMING         CLOUDY    73  57  57 NW15      29.98F
LAS CRUCES     CLOUDY    74  59  60 W22       29.98S
HOLLOMAN AFB   MOCLDY    84  55  37 W21G30    29.87R
ALAMOGORDO     MOCLDY    86  46  25 S13       29.89R
T OR C         CLOUDY    75  55  49 W17       29.94S

$$
NMZ519>523-200200-
CENTRAL VALLEYS/CENTRAL HIGHLANDS

CITY           SKY/WX    TMP DP  RH WIND       PRES   REMARKS
ALBUQUERQUE    MOCLDY    82  46  28 W21G26    29.95S
DOUBLE EAGLE   MOCLDY    79  46  31 W20       30.00R
MORIARTY ARPT  MOCLDY    76  48  37 W8        30.02R
CLINES CORNERS MOCLDY    74  44  34 S10       30.07S
BELEN          FAIR      79  50  35 W12G21    29.94R
SOCORRO        FAIR      86  45  23 S6        29.91S

$$
NMZ524>526-539-540-200200-
SOUTHCENTRAL MOUNTAINS

CITY           SKY/WX    TMP DP  RH WIND       PRES   REMARKS
RUIDOSO        MOCLDY    70  48  46 CALM      30.11R

$$
NMZ527>531-200200-
NORTHEAST HIGHLANDS/NORTHEAST PLAINS

CITY           SKY/WX    TMP DP  RH WIND       PRES   REMARKS
LAS VEGAS      MOCLDY    73  46  38 SW7       30.06S
RATON          MOCLDY    73  51  46 E5        30.00S
CLAYTON        PTCLDY    86  45  23 SE13      29.92R

$$
NMZ532>537-200200-
EASTCENTRAL PLAINS

CITY           SKY/WX    TMP DP  RH WIND       PRES   REMARKS
TUCUMCARI      PTCLDY    93  48  21 S14       29.83S
CANNON AFB     CLEAR     87  53  31 SE9       29.89S
CLOVIS AIRPORT   N/A     84  55  37 SE9       29.91S

$$
NMZ028-029-538-200200-
SOUTHEAST PLAINS

CITY           SKY/WX    TMP DP  RH WIND       PRES   REMARKS
ROSWELL        CLEAR     90  52  27 E6        29.81F
ARTESIA        CLEAR     93  50  22 SE12      29.81S
CARLSBAD       PTCLDY    93  51  23 S14       29.79S
HOBBS          MOCLDY    91  50  24 SE10G17   29.85S


$$



USA.gov is the U.S. government's official web portal to all federal, state and local government web resources and services.